www.pogodaiklimat.ru

Погода и климат >> Архив погоды >> Австралия >> Dalwallinu


ПОГОДА в Dalwallinu

  • Прогноз погоды в Dalwallinu
  • Монитор погоды в Dalwallinu
  • Климат города

АРХИВ ПОГОДЫ в Dalwallinu

Время (UTC), дата Ветер
(напр.,м/с)
 
Видим.   Явления Облачность Т
(С)
Тd
(С)
f
(%)
Тe
(С)
Тes
(С)
Комфортность P
(гПа)
Po
(гПа)
Тmin
(С)
Tmax
(С)
R
(мм)
R24
(мм)
S
(см)
01 17.10 С 10 н/о н/о +26.6 +3.8 23 +25 +25 комфорт 1012.3 974.6 +11.7
04 17.10 С 10 н/о н/о +32.6 +0.6 13 +29 +29 жарко 1009.0 971.4
07 17.10 С 9 н/о н/о +34.6 -1.4 10 +31 +31 жарко 1005.0 967.6
10 17.10 З 7 н/о н/о +25.9 +9.3 35 +26 +26 жарко 1005.6 968.1
13 17.10 З 4 н/о н/о +17.0 +9.7 62 +17 +17 1008.1 970.5 +35.7
16 17.10 З 8 н/о н/о +15.2 +12.1 82 +13 +13 1006.8 969.3
19 17.10 С 4 н/о н/о +13.5 +11.9 90 +12 +12 1005.8 968.3
22 17.10 З 4 н/о {осадки} н/о +12.4 +11.1 92 +11 +11 1007.5 970.0
01 18.10 СЗ 5 н/о {осадки} н/о +14.3 +11.3 82 +13 +13 1008.6 971.0 +12.3 0.6
04 18.10 З 8 н/о {осадки} н/о +16.6 +7.3 54 +15 +15 1008.9 971.3
07 18.10 З 9 н/о {осадки} н/о +16.6 +4.6 45 +15 +15 1009.7 972.1 0.8
10 18.10 З 5 н/о {осадки} н/о +12.1 +7.0 71 +10 +10 1012.9 975.2
13 18.10 З 4 н/о {осадки} н/о +8.7 +6.7 87 +6 +6 1015.8 978.0 +19.1 2
16 18.10 З 3 н/о н/о +7.6 +5.9 89 +5 +5 1016.6 978.7
19 18.10 З 3 н/о н/о +6.9 +5.5 91 +4 +4 1017.3 979.4 2
22 18.10 З 2 н/о н/о +7.8 +6.6 92 +6 +6 1019.8 981.8
01 19.10 ЮЗ 4 н/о н/о +14.6 +6.7 59 +13 +13 1021.6 983.5 +6.4 2
04 19.10 Ю 4 н/о н/о +16.4 +6.0 50 +16 +16 1020.9 982.9
07 19.10 ЮЗ 5 н/о н/о +18.9 +5.0 40 +19 +19 1020.2 982.2
10 19.10 Ю 4 н/о н/о +16.2 +6.3 52 +16 +16 1020.9 982.9
13 19.10 Ю 4 н/о н/о +11.2 +6.1 71 +9 +9 1022.0 983.9 +21.4
16 19.10 ЮЗ 4 н/о н/о +9.4 +7.0 85 +6 +6 1021.6 983.5
19 19.10 ЮЗ 4 н/о н/о +8.7 +7.2 90 +6 +6 1020.5 982.5
22 19.10 Ю 2 н/о н/о +8.1 +6.9 92 +6 +6 1020.9 982.9
01 20.10 СЗ 2 н/о н/о +17.4 +6.9 50 +18 +18 1021.0 983.0 +7.1
04 20.10 З 5 н/о н/о +23.7 +4.6 29 +23 +23 комфорт 1017.7 979.8
07 20.10 З 5 н/о н/о +25.6 +4.7 26 +25 +25 комфорт 1016.0 978.1
10 20.10 З 6 н/о н/о +19.5 +9.1 51 +20 +20 1017.1 979.2
13 20.10 ЮЗ 4 н/о н/о +13.7 +9.9 78 +12 +12 1018.5 980.6 +26.1
16 20.10 З 2 н/о н/о +10.1 +7.9 86 +9 +9 1017.6 979.7
19 20.10 З 3 н/о н/о +9.5 +8.3 92 +7 +7 1016.6 978.7
22 20.10 З 3 н/о н/о +12.5 +9.3 81 +11 +11 1018.0 980.1
01 21.10 З 6 н/о н/о +17.8 +8.6 55 +17 +17 1018.3 980.4 +6.2
04 21.10 ЮЗ 7 н/о н/о +21.4 +8.3 43 +23 +23 комфорт 1017.0 979.1
07 21.10 ЮЗ 6 н/о н/о +21.9 +9.8 46 +23 +23 комфорт 1016.1 978.2
10 21.10 ЮЗ 4 н/о н/о +18.6 +10.9 61 +19 +19 1016.8 978.9
13 21.10 ЮЗ 4 н/о н/о +14.9 +11.9 82 +14 +14 1018.5 980.6 +24.2
16 21.10 Ю 5 н/о н/о +13.3 +10.3 82 +11 +11 1018.7 980.7
19 21.10 ЮЗ 3 н/о н/о +10.7 +7.4 80 +9 +9 1018.2 980.3
22 21.10 З 2 н/о н/о +9.8 +7.9 88 +8 +8 1019.4 981.4
01 22.10 Ю 5 н/о н/о +17.2 +6.1 48 +17 +17 1020.6 982.6 +9.2
04 22.10 Ю 5 н/о н/о +18.9 +6.4 44 +19 +19 1019.7 981.7
07 22.10 ЮЗ 4 н/о н/о +21.3 +6.0 37 +22 +22 комфорт 1018.1 980.2
10 22.10 Ю 4 н/о н/о +18.4 +5.3 42 +18 +18 1018.2 980.3
13 22.10 ЮЗ 5 н/о н/о +12.1 +8.0 76 +10 +10 1020.1 982.1 +21.9
16 22.10 Ю 4 н/о н/о +9.4 +7.5 88 +6 +6 1019.1 981.1
19 22.10 ЮЗ 5 н/о н/о +8.2 +6.8 91 +5 +5 1018.1 980.2
22 22.10 Ю 4 н/о н/о +7.7 +6.3 91 +4 +4 1018.5 980.6
01 23.10 В 3 н/о н/о +17.9 +6.1 46 +18 +18 1018.4 980.5 +7.3
04 23.10 СЗ 4 н/о н/о +23.3 +3.8 28 +23 +23 комфорт 1016.3 978.4
07 23.10 ЮЗ 4 н/о н/о +26.2 +2.8 22 +25 +25 комфорт 1014.0 976.2
10 23.10 ЮЗ 4 н/о н/о +22.2 +3.8 30 +22 +22 комфорт 1014.1 976.3
13 23.10 ЮЗ 7 н/о н/о +14.2 +7.7 65 +12 +12 1015.4 977.6 +26.8
16 23.10 Ю 4 н/о н/о +10.0 +8.1 88 +7 +7 1014.6 976.8
19 23.10 ЮЗ 4 н/о н/о +9.1 +7.9 92 +6 +6 1013.8 976.0
22 23.10 Ю 3 н/о н/о +8.6 +7.7 94 +6 +6 1013.9 976.1

 

Местоположение метеостанции Dalwallinu (Западная Австралия, Австралия): широта -30.28 долгота 116.67 высота над уровнем моря 326 м.

В архиве по умолчанию представлена погода в Dalwallinu за последнюю неделю. Архивные данные за месяц целиком и за предыдущие месяцы, начиная с января 2011 года, Вы можете получить, выбрав интересующий диапазон дат из раскрывающегося списка и нажав кнопку "Ввод!".


*Определитесь, кто Вы:
робот инопланетянин человек

Внимание! Время в таблицах - всемирное. Для получения местного времени необходимо прибавить поправку, которая в Dalwallinu равна 8 ч.

Смотрите также архив погоды в соседних городах и на ближайших метеорологических станциях:

Погода в Rottnest Island Lighthouse (Западная Австралия, Австралия) (110 км)
Погода в Morawa Airport (Западная Австралия, Австралия) (136 км)
Погода в Gingin Aero (Западная Австралия, Австралия) (153 км)
Погода в Cunderdin Airfield (Западная Австралия, Австралия) (158 км)
Погода в Bullsbrook Pearce Amo (Западная Австралия, Австралия) (167 км)
Погода в Wanneroo (Западная Австралия, Австралия) (187 км)
Погода в Goosebery Hill (Западная Австралия, Австралия) (195 км)
Погода в Perth (Западная Австралия, Австралия) (196 км)
Погода в Mount Lawley Perth Metro (Западная Австралия, Австралия) (198 км)
Погода в Kalamunda Bickley (Западная Австралия, Австралия) (200 км)

Пояснения к столбцам:

Ветер - указаны скорость ветра в м/с - средняя за 10 мин, порывы в срок и между сроками (в фигурных скобках) и направление, откуда дует ветер: С - северный, СВ - северо-восточный, В - восточный, ЮВ - юго-восточный, Ю - южный, ЮЗ - юго-западный, З - западный, СЗ - северо-западный.
Видимость - горизонтальная дальность видимости в метрах или километрах. При видимости от 1 до 10 км при отсутствии осадков обычно наблюдается дымка, при ухудшении видимости до 1 км и менее - туман. В сухую погоду видимость может ухудшаться дымом, пылью или мглою.
Явления - указаны атмосферные явления, наблюдавшиеся в срок или в последний час перед сроком; фигурными скобками обозначены явления, наблюдавшиеся между сроками (за 1-3 часа до срока); квадратными скобками обозначены град или гололедные отложения с указанием их диаметра в мм.
Облачность - указаны через наклонную черту общая и нижняя облачность в баллах и высота нижней границы облаков в метрах; квадратными скобками обозначены формы облаков: Ci - перистые, Cs - перисто-слоистые, Cc - перисто-кучевые, Ac - высококучевые, As - высокослоистые, Sc - слоисто-кучевые, Ns - слоисто-дождевые, Cu - кучевые, Cb - кучево-дождевые. Подробнее классификацию облаков см. в Атласе облаков (PDF).
T - Температура воздуха - температура, измеренная на высоте 2 м над землей.
Td - Температура точки росы - температура, при понижении до которой содержащийся в воздухе водяной пар достигнет насыщения.
f - Относительная влажность воздуха - влажноcть воздуха, измеренная на высоте 2 м над землей.
Te - Эффективная температура - температура, которую ощущает одетый по сезону человек в тени. Характеристика душности погоды. При расчете учитывается влияние влажности воздуха и скорости ветра на теплоощущения человека.
Tes - Эффективная температура на солнце - температура, которую ощущает человек, с поправкой на солнечный нагрев. Характеристика знойности погоды. Зависит от высоты солнца над горизонтом, облачности и скорости ветра. Ночью, в пасмурную погоду, а также при ветре 12 м/с и более поправка равна нулю.
P - Атмосферное давление - приведенное к уровню моря атмосферное давление.
Po - Атмосферное давление - измеренное на уровне метеостанции атмосферное давление.
Tmin - Минимальная температура - минимум температуры воздуха на высоте 2 м над землей.
Tmax - Максимальная температура - максимум температуры воздуха на высоте 2 м над землей.
R - Количество осадков - Количество выпавших осадков за период времени, мм. При наведении курсора мыши на число - период времени, за который выпало указанное количество осадков.
R24 - Количество осадков - Количество выпавших осадков за 24 часа, мм.
S - Снежный покров - Высота снежного покрова, см. При наведении курсора мыши на число - состояние снежного покрова и степень покрытия местности в баллах.